Theta_e
323 324 325 324 325 326 327 328 329 329 329 329 329 329 329 330 330 330 330 329 329 329 329 327 326 327 327 329 329 329 329 330 330 330 330 331 331 331 331 331 331 330
321 323 324 324 324 324 325 327 328 329 330 329 329 329 328 329 330 329 330 330 329 328 328 328 327 328 328 328 329 329 330 330 329 329 330 331 330 331 331 331 330 329
321 322 323 324 323 323 324 326 327 328 329 329 329 328 328 328 328 328 329 329 328 328 328 328 328 328 328 328 329 329 329 330 329 329 329 330 330 331 332 331 330 329
320 320 321 322 322 323 324 324 326 327 327 328 329 329 328 328 327 327 327 327 327 326 326 327 327 328 328 329 329 329 330 331 330 329 330 330 330 331 332 332 330 329
318 319 319 320 320 320 322 323 323 325 326 327 327 328 328 328 328 328 327 327 327 326 326 326 326 327 327 327 328 329 330 331 330 330 330 330 330 331 331 332 331 330
318 318 319 319 318 318 319 320 321 322 324 325 325 325 326 327 328 328 328 327 327 327 327 327 326 327 327 326 326 328 329 330 330 330 330 330 330 330 330 331 331 330
317 318 318 317 317 317 317 318 319 319 321 322 323 323 324 325 326 327 328 328 328 327 328 327 327 326 326 327 328 328 330 330 330 330 330 330 330 330 330 330 331 331
316 316 316 315 315 316 316 316 317 318 319 320 321 321 322 323 324 326 327 327 328 328 328 328 327 326 326 327 328 328 328 329 330 331 330 329 330 330 329 329 330 330
315 315 315 314 314 315 315 316 316 318 318 318 319 320 320 321 323 325 325 326 327 328 328 329 328 327 327 328 328 328 328 327 328 330 330 329 329 329 329 329 330 330
314 314 314 314 314 315 315 316 317 317 318 318 317 318 319 320 321 324 324 325 326 327 328 328 328 328 328 329 329 329 329 327 327 328 329 329 328 327 328 328 329 329
313 313 313 314 314 315 315 316 316 317 317 317 316 316 317 318 319 321 323 324 325 326 327 328 328 328 328 329 329 329 329 329 328 327 328 329 328 327 326 327 328 328
312 312 312 312 313 314 314 315 315 316 316 316 315 315 315 316 317 319 321 322 324 325 326 327 327 328 328 328 328 328 328 329 329 329 328 328 327 326 326 326 326 327
311 311 311 311 311 312 313 313 314 314 314 314 314 314 314 315 316 317 319 320 322 324 325 325 326 326 327 328 328 328 328 328 328 329 329 328 327 327 327 327 326 327
310 310 309 309 310 311 311 312 312 313 313 313 313 313 314 315 315 316 317 319 320 322 322 323 324 325 326 327 328 328 328 328 328 328 329 329 328 327 328 327 327 327
309 309 308 308 309 310 310 311 311 311 312 312 312 312 313 314 315 315 316 317 318 320 321 322 322 323 324 325 326 327 327 327 328 329 328 328 328 328 328 327 327 327
308 308 308 308 308 308 308 309 310 310 311 311 311 311 311 312 313 314 314 315 316 318 319 320 320 321 322 322 323 325 326 327 328 329 328 328 328 328 328 328 327 327
307 307 307 307 306 306 306 307 307 308 309 309 309 310 310 310 311 312 313 313 314 315 316 317 318 319 320 321 322 323 324 325 327 328 328 328 327 327 328 329 327 326
306 306 306 306 306 305 305 305 305 306 307 307 308 308 308 308 309 309 310 311 311 313 314 315 317 318 319 320 321 321 322 323 325 327 327 327 327 327 327 328 328 326
306 306 306 306 305 305 304 304 304 304 305 305 306 307 307 307 307 307 308 308 309 310 311 313 315 316 318 318 319 320 321 322 323 325 326 326 327 327 327 327 327 327
304 304 305 305 305 304 304 303 303 303 303 303 304 305 306 306 306 306 306 307 307 308 308 310 312 314 316 317 318 319 320 321 322 323 324 325 326 327 327 327 326 326
302 302 303 303 303 303 303 303 303 302 302 302 302 303 303 304 304 304 305 306 306 307 307 308 309 311 314 316 317 318 319 320 321 322 323 324 324 325 326 326 326 326
302 302 302 302 301 301 302 302 302 302 302 301 301 301 302 302 302 302 303 304 305 306 307 307 308 309 312 314 316 317 318 319 321 322 323 323 323 323 325 326 326 326
302 302 301 300 299 300 301 302 302 302 301 300 300 300 300 300 301 301 302 303 304 304 305 306 307 307 309 312 314 316 317 318 320 322 322 323 322 322 324 325 325 326
302 302 300 299 298 298 300 301 300 300 298 297 298 299 299 299 300 300 301 301 302 303 304 305 305 306 307 309 311 314 316 317 318 319 320 321 321 321 322 323 325 325
301 301 300 299 298 297 297 298 298 297 297 296 296 297 297 298 298 299 300 300 301 301 302 303 304 305 306 307 309 312 314 315 316 317 318 318 319 320 321 322 324 324
300 300 300 300 299 298 297 297 297 297 297 297 296 296 296 296 296 298 299 300 300 300 301 302 303 303 304 305 307 309 311 313 315 316 316 316 317 318 319 321 323 324
Wind_Speed
1 0 1 3 4 6 8 11 12 13 14 14 14 15 15 15 16 17 16 14 14 14 15 16 16 17 17 18 20 21 22 22 22 22 23 24 26 28 30 30 27 26
6 4 2 1 2 4 6 7 9 11 12 12 13 13 13 13 13 14 14 13 14 14 15 16 17 18 19 20 21 22 21 22 22 22 22 24 24 26 29 30 29 27
10 8 5 4 4 5 5 5 6 7 8 10 11 11 12 12 12 13 12 13 13 14 15 16 16 18 19 20 22 22 21 21 22 22 22 23 24 26 28 29 29 28
15 13 11 9 9 8 6 5 6 6 6 7 9 10 11 11 12 12 12 12 13 14 15 15 15 16 17 19 21 22 23 22 20 20 22 23 23 24 26 27 27 27
18 18 17 15 15 13 10 8 8 8 7 6 6 7 8 9 10 12 12 12 13 14 14 14 14 15 17 19 21 22 24 23 20 18 19 21 22 22 22 24 26 27
19 19 18 18 18 18 14 11 10 9 8 7 7 8 7 7 8 10 11 12 13 14 15 15 15 15 16 18 19 20 21 20 18 17 17 19 21 22 21 22 25 27
19 17 17 18 19 19 17 15 13 10 9 8 8 9 9 9 9 9 10 10 11 13 15 16 16 16 16 18 19 19 20 19 17 16 17 19 21 22 23 23 24 27
19 17 17 19 20 20 20 19 17 15 12 10 9 8 8 9 10 10 9 10 10 11 13 15 16 16 17 17 17 17 18 17 16 16 17 19 21 22 23 23 24 25
20 19 20 21 22 22 22 21 20 19 17 16 14 11 7 6 7 9 10 11 11 11 12 13 15 16 17 16 15 15 15 14 14 17 19 20 21 22 23 24 24 25
21 22 22 23 24 24 23 22 21 20 18 18 18 16 12 8 5 7 9 11 12 12 13 14 15 15 15 15 14 14 16 15 15 17 20 22 22 22 22 23 23 24
22 23 24 24 25 25 25 24 23 21 20 19 18 18 17 13 8 6 7 10 11 13 14 14 16 16 15 14 13 13 15 17 18 18 19 21 22 22 22 23 23 22
24 25 25 25 26 26 25 25 24 23 22 21 20 18 18 17 14 9 7 9 10 12 14 15 16 17 16 16 16 15 15 16 17 18 18 18 20 21 21 21 21 22
24 25 25 25 25 25 25 25 24 24 23 22 21 20 19 18 17 14 10 10 10 12 16 16 16 17 16 17 17 16 15 15 15 17 18 18 18 20 20 20 20 21
24 25 24 24 23 24 25 25 24 24 24 24 22 21 21 19 18 16 13 11 11 12 15 17 18 18 17 16 16 14 14 15 16 16 17 17 18 20 21 20 19 20
23 24 23 23 24 24 25 26 26 26 25 25 25 24 23 21 19 17 15 13 12 12 13 16 17 18 18 17 16 15 14 16 17 17 16 17 18 19 19 19 19 20
23 23 24 25 26 27 27 27 27 27 27 27 27 27 26 25 22 20 18 16 14 13 13 15 17 18 18 19 19 18 16 16 18 19 19 20 19 18 18 18 19 20
24 24 25 26 27 28 28 28 28 28 28 28 28 28 28 28 27 25 24 23 21 18 16 15 16 18 19 19 20 20 19 18 19 19 20 21 21 19 18 18 20 22
25 25 27 27 28 28 28 28 28 28 28 29 28 28 28 29 29 29 28 28 27 25 22 19 18 17 17 19 20 21 21 20 19 19 20 21 21 21 20 19 20 21
25 25 26 27 27 28 29 29 29 29 29 29 28 27 27 28 29 29 30 30 30 30 28 26 23 21 18 17 18 19 20 20 19 19 20 21 21 22 21 19 20 21
25 25 24 23 23 24 27 30 30 30 30 29 28 27 27 27 28 29 30 31 31 32 32 31 29 25 22 20 19 18 18 19 18 18 19 20 21 22 20 20 20 20
29 28 26 24 22 22 25 28 29 30 31 30 29 28 27 27 27 29 29 30 30 31 32 33 32 29 25 21 20 20 19 18 16 16 15 15 17 18 18 20 20 20
30 29 29 28 25 23 23 26 27 29 29 29 29 29 29 28 27 28 29 29 29 30 31 33 34 33 29 24 20 20 21 20 16 14 11 8 10 13 14 16 18 19
27 27 28 29 28 25 23 23 24 25 26 26 27 28 30 30 28 28 30 29 29 29 31 32 34 34 33 29 22 19 20 20 17 11 7 6 7 9 12 14 16 17
23 24 27 31 31 29 25 22 22 25 26 27 27 27 28 29 30 30 31 31 30 30 30 31 32 34 35 34 28 21 18 18 17 12 7 5 5 7 10 12 13 14
23 23 26 31 34 33 30 27 27 29 31 31 31 30 28 29 31 33 33 34 33 31 30 30 31 32 33 34 32 26 20 17 15 13 11 11 10 7 5 6 7 9
25 25 27 29 33 33 33 32 31 32 33 34 33 32 30 30 32 33 34 35 35 33 31 29 30 31 32 32 32 30 26 20 15 13 13 14 13 11 9 6 2 2
Wind_Direction
9 36 264 292 284 285 317 333 335 336 333 330 324 318 315 310 301 296 295 297 300 304 307 305 300 297 289 281 276 271 267 265 266 265 259 255 251 246 241 236 233 232
32 41 51 1 313 304 323 341 347 344 341 340 337 333 328 321 314 309 303 302 303 304 306 304 300 298 293 288 281 274 268 263 261 262 261 258 253 248 244 238 234 233
29 30 32 18 349 346 351 351 348 346 345 345 347 347 340 332 330 325 317 314 311 308 306 304 301 298 294 290 284 277 271 265 261 259 260 260 256 252 247 239 235 235
27 26 23 19 6 358 351 336 331 334 342 347 350 350 344 338 333 328 323 320 314 308 305 303 302 300 296 292 288 281 273 266 262 260 258 258 255 254 251 244 238 237
26 26 22 19 13 6 357 344 336 329 327 331 332 337 340 337 333 330 326 322 318 315 311 307 304 303 300 297 293 286 277 270 264 260 258 255 251 249 250 247 242 238
29 29 22 15 10 5 2 1 354 336 322 314 308 311 317 319 327 332 326 319 319 317 313 311 309 308 305 302 298 293 284 274 264 259 259 257 252 248 248 248 243 238
32 29 18 10 6 1 2 6 5 356 339 319 304 299 299 299 306 317 318 314 313 313 312 311 311 312 310 304 302 299 291 280 266 259 261 261 256 252 249 247 244 241
27 23 13 8 6 4 5 6 5 4 359 347 333 315 300 296 301 308 313 314 313 310 310 310 308 308 308 306 303 299 297 293 280 268 266 263 259 255 250 247 245 244
22 17 10 9 9 8 8 8 8 8 6 1 358 351 333 313 312 317 320 320 317 310 309 310 307 303 304 307 303 297 298 298 285 271 266 262 258 253 249 247 247 248
19 16 11 10 13 15 15 15 15 14 11 7 5 2 358 350 331 320 321 324 323 322 323 319 311 304 302 304 304 300 296 290 281 273 267 262 257 249 246 247 247 248
18 18 17 16 18 22 24 23 21 19 16 13 11 8 5 1 354 331 319 323 327 331 333 324 312 305 297 290 289 292 292 287 281 274 267 264 258 248 244 246 247 246
21 21 23 22 22 25 28 29 28 25 22 19 16 12 8 7 5 353 330 320 322 325 323 318 314 310 299 288 287 285 282 282 282 277 269 263 257 249 243 244 246 245
27 27 27 26 25 29 32 33 34 33 29 27 24 19 15 13 12 6 350 330 318 312 309 308 312 313 303 290 290 292 285 277 277 275 267 259 252 246 241 240 241 242
35 31 30 29 28 31 35 37 39 38 36 34 33 30 27 22 17 12 3 346 329 314 306 304 306 311 309 297 289 291 291 282 276 270 265 259 250 242 238 237 238 239
41 34 31 33 32 34 37 38 40 39 38 37 36 36 36 32 25 19 11 1 347 330 316 309 306 310 315 312 301 291 285 280 277 272 264 258 252 243 240 243 243 241
44 35 33 35 33 33 35 36 38 38 36 35 35 36 36 35 32 28 22 17 7 353 338 325 318 316 316 315 311 303 292 281 276 273 266 259 253 244 242 250 253 248
42 36 36 36 33 32 31 30 33 34 33 32 33 35 35 34 32 30 27 23 18 12 2 348 337 329 323 317 313 309 303 292 280 273 266 260 254 245 240 246 254 254
42 39 37 35 33 31 29 28 29 30 29 28 28 31 33 32 31 30 28 25 21 17 12 6 358 347 335 324 316 312 308 300 288 276 268 264 259 252 243 240 247 254
44 42 38 35 34 32 29 29 29 28 25 21 21 23 27 29 29 28 27 26 23 19 15 12 9 4 355 342 329 320 313 306 298 285 274 269 264 256 247 241 245 251
45 43 40 36 33 31 31 31 30 28 24 19 17 18 20 23 24 23 23 23 22 20 17 14 12 8 4 359 351 341 330 318 307 294 283 276 271 262 250 241 243 247
43 42 39 36 32 33 36 35 30 26 23 20 19 19 19 20 21 20 19 19 19 19 16 15 13 10 6 4 3 359 352 341 326 314 303 291 280 269 252 240 242 248
45 42 36 31 30 32 39 41 36 29 23 20 21 22 22 22 23 22 19 18 17 17 16 15 13 11 7 5 6 7 5 0 352 341 334 316 284 268 254 243 243 249
48 43 35 31 32 34 36 40 39 33 24 21 23 25 24 23 25 26 24 21 19 18 18 16 13 12 10 8 7 9 10 11 8 0 349 327 293 271 262 252 244 246
48 43 39 37 38 40 39 38 39 37 32 30 30 30 28 27 29 32 30 27 24 22 20 18 16 14 12 11 11 9 11 15 16 16 13 356 329 288 269 257 241 240
46 43 40 37 38 43 45 44 44 42 40 39 37 35 35 34 34 36 35 33 30 25 22 21 20 18 15 14 14 13 12 13 12 13 18 22 22 7 318 273 239 238
47 42 38 36 38 41 43 43 43 43 41 39 38 37 37 37 37 37 37 37 34 30 26 22 22 22 20 17 16 16 16 16 13 11 14 18 21 20 14 10 359 277